This is the latest recevied weather packets stored in our database for station/object KA8DUX-2. If no packets are shown the sender has not sent any weather packets the latest 10 day(s).
| Time | Temp. | Humidity | Pressure | Rain* | Wind** | Luminosity | Snow |
|---|---|---|---|---|---|---|---|
| 1778205409 | 7.78° C | 63% | 1009.8 hPa | 0 mm | - | 0 W/m² | - |
| 1778205106 | 7.78° C | 63% | 1009.9 hPa | 0 mm | - | 0 W/m² | - |
| 1778204802 | 7.78° C | 62% | 1009.9 hPa | 0 mm | - | 0 W/m² | - |
| 1778204498 | 8.33° C | 61% | 1009.9 hPa | 0 mm | - | 0 W/m² | - |
| 1778204195 | 8.33° C | 60% | 1009.7 hPa | 0 mm | - | 0 W/m² | - |
| 1778203891 | 8.89° C | 59% | 1009.5 hPa | 0 mm | - | 0 W/m² | - |
| 1778203589 | 8.89° C | 58% | 1009.5 hPa | 0 mm | - | 0 W/m² | - |
| 1778203286 | 8.89° C | 58% | 1009.6 hPa | 0 mm | - | 0 W/m² | - |
| 1778202985 | 8.89° C | 57% | 1009.5 hPa | 0 mm | - | 0 W/m² | - |
| 1778202682 | 8.89° C | 55% | 1009.4 hPa | 0 mm | - | 0 W/m² | - |
| 1778202378 | 9.44° C | 54% | 1009.5 hPa | 0 mm | - | 0 W/m² | - |
| 1778202076 | 9.44° C | 55% | 1009.3 hPa | 0 mm | - | 0 W/m² | - |
| 1778201772 | 10° C | 53% | 1009.2 hPa | 0 mm | - | 0 W/m² | - |
| 1778201469 | 10° C | 54% | 1009.3 hPa | 0 mm | - | 1 W/m² | - |
| 1778201165 | 10° C | 54% | 1009.1 hPa | 0 mm | - | 3 W/m² | - |
| 1778200862 | 10.56° C | 51% | 1009.2 hPa | 0 mm | - | 5 W/m² | - |
| 1778200558 | 10.56° C | 51% | 1009.4 hPa | 0 mm | - | 6 W/m² | - |
| 1778200256 | 11.11° C | 50% | 1009.1 hPa | 0 mm | - | 10 W/m² | - |
| 1778199952 | 11.11° C | 49% | 1008.9 hPa | 0 mm | - | 14 W/m² | - |
| 1778199650 | 11.11° C | 49% | 1009.3 hPa | 0 mm | - | 19 W/m² | - |
| 1778199345 | 11.11° C | 49% | 1009.1 hPa | 0 mm | - | 26 W/m² | - |
| 1778199041 | 11.67° C | 51% | 1009.2 hPa | 0 mm | - | 26 W/m² | - |
| 1778198737 | 11.67° C | 47% | 1009 hPa | 0 mm | - | 32 W/m² | - |
| 1778198435 | 11.67° C | 48% | 1009.1 hPa | 0 mm | - | 35 W/m² | - |
| 1778198132 | 11.11° C | 49% | 1009.2 hPa | 0 mm | - | 38 W/m² | - |
* Rain latest hour (hover to see other rain measurements)
** Current wind speed in m/s (hover to see current wind gust speed)